2023/10/11 00:00:00, 0.3,11.6
2023/10/11 00:10:00, 0.3,11.4
2023/10/11 00:20:00, 0.3,11.2
2023/10/11 00:30:00, 0.4,11.3
2023/10/11 00:40:00, 0.4,11.2
2023/10/11 00:50:00, 0.4,11.3
2023/10/11 01:00:00, 0.4,11.0
2023/10/11 01:10:00, 0.4,10.9
2023/10/11 01:20:00, 0.4,11.2
2023/10/11 01:30:00, 0.4,10.9
2023/10/11 01:40:00, 0.4,11.0
2023/10/11 01:50:00, 0.4,10.9
2023/10/11 02:00:00, 0.4,10.8
2023/10/11 02:10:00, 0.4,10.7
2023/10/11 02:20:00, 0.3,10.9
2023/10/11 02:30:00, 0.3,10.9
2023/10/11 02:40:00, 0.4,10.6
2023/10/11 02:50:00, 0.4,10.8
2023/10/11 03:00:00, 0.4,10.7
2023/10/11 03:10:00, 0.4,10.8
2023/10/11 03:20:00, 0.4,10.7
2023/10/11 03:30:00, 0.4,10.6
2023/10/11 03:40:00, 0.5,10.5
2023/10/11 03:50:00, 0.5,10.5
2023/10/11 04:00:00, 0.5,10.2
2023/10/11 04:10:00, 0.4,10.5
2023/10/11 04:20:00, 0.4,10.2
2023/10/11 04:30:00, 0.5,10.5
2023/10/11 04:40:00, 0.5,10.4
2023/10/11 04:50:00, 0.5,10.2
2023/10/11 05:00:00, 0.4,10.5
2023/10/11 05:10:00, 0.4,10.5
2023/10/11 05:20:00, 0.4,10.6
2023/10/11 05:30:00, 0.4,10.8
2023/10/11 05:40:00, 0.5,10.4
2023/10/11 05:50:00, 0.5,10.6
2023/10/11 06:00:00, 0.5,10.2
2023/10/11 06:10:00, 0.5,10.3
2023/10/11 06:20:00, 0.5,10.5
2023/10/11 06:30:00, 0.5,10.3
2023/10/11 06:40:00, 0.5,10.7
2023/10/11 06:50:00, 0.5,11.2
2023/10/11 07:00:00, 0.5,11.5
2023/10/11 07:10:00, 0.5,11.7
2023/10/11 07:20:00, 0.5,15.6
2023/10/11 07:30:00, 0.5,13.4
2023/10/11 07:40:00, 0.5,13.0
2023/10/11 07:50:00, 0.5,13.6
2023/10/11 08:00:00, 0.5,16.1
2023/10/11 08:10:00, 0.5,14.4
2023/10/11 08:20:00, 0.5,13.5
2023/10/11 08:30:00, 0.5,13.2
2023/10/11 08:40:00, 0.6,15.2
2023/10/11 08:50:00, 0.4,14.8
2023/10/11 09:00:00, 0.4,15.2
2023/10/11 09:10:00, 0.6,17.3
2023/10/11 09:20:00, 0.6,19.1
2023/10/11 09:30:00, 0.5,20.2
2023/10/11 09:40:00, 0.6,21.2
2023/10/11 09:50:00, 0.5,17.7
2023/10/11 10:00:00, 0.5,16.9
2023/10/11 10:10:00, 0.7,17.6
2023/10/11 10:20:00, 1.2,20.7
2023/10/11 10:30:00, 0.7,19.5
2023/10/11 10:40:00, 0.3,17.9
2023/10/11 10:50:00, 0.2,17.1
2023/10/11 11:00:00, 0.9,19.9
2023/10/11 11:10:00, 0.4,18.6
2023/10/11 11:20:00, 0.5,18.6
2023/10/11 11:30:00, 0.5,17.6
2023/10/11 11:40:00, 0.7,17.5
2023/10/11 11:50:00, 0.5,18.4
2023/10/11 12:00:00, 0.9,20.2
2023/10/11 12:10:00, 0.8,20.8
2023/10/11 12:20:00, 1.0,21.2
2023/10/11 12:30:00, 0.3,19.9
2023/10/11 12:40:00, 0.8,20.8
2023/10/11 12:50:00, 0.0,18.8
2023/10/11 13:00:00, 0.1,18.8
2023/10/11 13:10:00, 0.6,20.3
2023/10/11 13:20:00, 0.4,19.0
2023/10/11 13:30:00, 0.1,18.2
2023/10/11 13:40:00, 0.3,19.1
2023/10/11 13:50:00, 0.6,20.2
2023/10/11 14:00:00, 0.6,20.5
2023/10/11 14:10:00, 0.5,20.9
2023/10/11 14:20:00, 0.2,19.9
2023/10/11 14:30:00, 0.4,21.1
2023/10/11 14:40:00, 0.5,20.4
2023/10/11 14:50:00, 0.1,18.7
2023/10/11 15:00:00, 0.0,17.9
2023/10/11 15:10:00, 0.1,17.3
2023/10/11 15:20:00, 0.1,16.7
2023/10/11 15:30:00, 0.1,16.1
2023/10/11 15:40:00, 0.1,16.3
2023/10/11 15:50:00, 0.2,15.6
2023/10/11 16:00:00, 0.2,15.9
2023/10/11 16:10:00, 0.2,15.8
2023/10/11 16:20:00, 0.1,15.2
2023/10/11 16:30:00, 0.1,15.1
2023/10/11 16:40:00, 0.2,14.9
2023/10/11 16:50:00, 0.2,14.9
2023/10/11 17:00:00, 0.2,14.4
2023/10/11 17:10:00, 0.2,14.2
2023/10/11 17:20:00, 0.2,13.7
2023/10/11 17:30:00, 0.2,13.6
2023/10/11 17:40:00, 0.2,13.4
2023/10/11 17:50:00, 0.2,13.2
2023/10/11 18:00:00, 0.2,12.8
2023/10/11 18:10:00, 0.1,12.6
2023/10/11 18:20:00, 0.1,12.3
2023/10/11 18:30:00, 0.1,11.9
2023/10/11 18:40:00, 0.1,11.6
2023/10/11 18:50:00, 0.1,11.5
2023/10/11 19:00:00, 0.0,11.4
2023/10/11 19:10:00, 0.0,11.0
2023/10/11 19:20:00, 0.1,11.3
2023/10/11 19:30:00, 0.1,10.9
2023/10/11 19:40:00, 0.1,10.5
2023/10/11 19:50:00, 0.1,11.1
2023/10/11 20:00:00, 0.0,10.9
2023/10/11 20:10:00, 0.0,10.6
2023/10/11 20:20:00, 0.0,10.4
2023/10/11 20:30:00, 0.1,10.6
2023/10/11 20:40:00, 0.1,10.3
2023/10/11 20:50:00, 0.1,10.2
2023/10/11 21:00:00, 0.0,10.1
2023/10/11 21:10:00, 0.1,10.1
2023/10/11 21:20:00, 0.0,10.0
2023/10/11 21:30:00, 0.1,10.0
2023/10/11 21:40:00, 0.1,10.1
2023/10/11 21:50:00, 0.1, 9.8
2023/10/11 22:00:00, 0.1, 9.8
2023/10/11 22:10:00, 0.1, 9.7
2023/10/11 22:20:00, 0.1, 9.6
2023/10/11 22:30:00, 0.1, 9.6
2023/10/11 22:40:00, 0.1, 9.5
2023/10/11 22:50:00, 0.1, 9.4
2023/10/11 23:00:00, 0.1, 9.3
2023/10/11 23:10:00, 0.1, 9.4
2023/10/11 23:20:00, 0.2, 9.3
2023/10/11 23:30:00, 0.2, 9.3
2023/10/11 23:40:00, 0.2, 9.2
2023/10/11 23:50:00, 0.2, 9.0
